DW4719 Vilanova I la Geltru ES current weather conditions

sailwx.info

Wind from 075

Air temperature 15.6° C
Dewpoint 11.9° C

Last reported at 2014-Oct-26 06:50 UTC.
Time now 2014-Oct-26 07:45 UTC

Location: N 41°13' E 001°44'.
View on Google Maps.

See reports from other nearby stations

  
Tides and Currents Weather Stations Pressure Air Temp Water Temp Dewpoint Dewpoint Depression Visibility Wind Speed Wind Dir Waves Ship Positions
date/time (UTC)wind fromknots sea level pressurealtimeterstation pressurevisibilityair tempwater tempwave heightnotes
2014-Oct-26 06:50 075 15.6
2014-Oct-26 06:45 075 15.6
2014-Oct-26 06:40 076 15.6
2014-Oct-26 06:35 047 16.1
2014-Oct-26 06:30 058 16.1
2014-Oct-26 06:24 359 15.6
2014-Oct-26 06:20 357 15.6
2014-Oct-26 06:15 349 15.6
2014-Oct-26 06:10 004 15.6
2014-Oct-26 06:05 032 15.6
2014-Oct-26 06:00 059 15.6
2014-Oct-26 05:56 059 15.6
2014-Oct-26 05:50 059 15.6
2014-Oct-26 05:45 059 15.6
2014-Oct-26 05:40 059 15.6
2014-Oct-26 05:35 059 15.6
2014-Oct-26 05:30 059 15.6
2014-Oct-26 05:26 059 15.6
2014-Oct-26 05:20 059 15.6
2014-Oct-26 05:15 059 15.6
2014-Oct-26 05:10 059 15.0
2014-Oct-26 05:05 059 15.0
2014-Oct-26 05:00 059 15.0
2014-Oct-26 04:56 059 15.0
2014-Oct-26 04:50 059 15.0
2014-Oct-26 04:45 059 15.6
2014-Oct-26 04:40 059 15.6
2014-Oct-26 04:35 059 15.6
2014-Oct-26 04:30 059 15.6
2014-Oct-26 04:25 059 15.6
2014-Oct-26 04:20 056 15.6
2014-Oct-26 04:15 056 15.6
2014-Oct-26 04:10 056 15.6
2014-Oct-26 04:05 056 15.6
2014-Oct-26 04:00 056 15.6
2014-Oct-26 03:55 058 15.6
2014-Oct-26 03:50 058 15.6
2014-Oct-26 03:45 058 15.6
2014-Oct-26 03:40 058 15.6
2014-Oct-26 03:35 055 15.6
2014-Oct-26 03:30 054 15.6
2014-Oct-26 03:25 054 15.6
2014-Oct-26 03:20 054 15.6
2014-Oct-26 03:15 054 15.6
2014-Oct-26 03:10 055 15.6
2014-Oct-26 03:05 054 15.6
2014-Oct-26 02:59 055 15.6
2014-Oct-26 02:55 055 15.6
2014-Oct-26 02:50 055 15.6
2014-Oct-26 02:45 054 15.6
2014-Oct-26 02:40 054 15.6
2014-Oct-26 02:35 054 15.6
2014-Oct-26 02:29 054 15.6
2014-Oct-26 02:25 054 15.6
2014-Oct-26 02:20 054 15.6
2014-Oct-26 02:15 054 15.6
2014-Oct-26 02:10 055 16.1
2014-Oct-26 02:05 054 16.1
2014-Oct-26 01:59 054 16.1
2014-Oct-26 01:55 054 16.1
2014-Oct-26 01:50 054 15.6
2014-Oct-26 01:45 054 15.6
2014-Oct-26 01:40 054 15.6
2014-Oct-26 01:35 054 16.1
2014-Oct-26 01:29 054 16.1
2014-Oct-26 01:25 054 16.1
2014-Oct-26 01:20 054 16.1
2014-Oct-26 01:15 054 16.1
2014-Oct-26 01:10 054 16.1
2014-Oct-26 01:05 054 16.1
2014-Oct-26 01:01 054 16.1
2014-Oct-26 00:55 052 16.1
2014-Oct-26 00:50 052 16.1
2014-Oct-26 00:45 052 16.7
2014-Oct-26 00:40 052 16.1
2014-Oct-26 00:35 052 16.7
2014-Oct-26 00:31 052 16.7
2014-Oct-26 00:25 052 16.7
2014-Oct-26 00:20 052 16.7
2014-Oct-26 00:15 052 16.7
2014-Oct-26 00:10 052 16.7
2014-Oct-26 00:05 052 16.7
2014-Oct-26 00:01 052 16.7
2014-Oct-25 23:55 052 16.7
2014-Oct-25 23:50 052 16.7
2014-Oct-25 23:45 051 16.7
2014-Oct-25 23:40 052 16.7
2014-Oct-25 23:35 052 16.7
2014-Oct-25 23:30 052 16.7
2014-Oct-25 23:25 052 16.7
2014-Oct-25 23:20 052 16.7
2014-Oct-25 23:15 052 16.7
2014-Oct-25 23:10 051 16.7
2014-Oct-25 23:04 051 16.7
2014-Oct-25 23:00 051 16.7
2014-Oct-25 22:55 051 16.7
2014-Oct-25 22:50 051 16.7
2014-Oct-25 22:45 051 17.2
2014-Oct-25 22:40 051 17.2
2014-Oct-25 22:34 051 17.2
2014-Oct-25 22:30 051 17.2
2014-Oct-25 22:25 051 17.2
2014-Oct-25 22:20 051 17.2
2014-Oct-25 22:15 051 17.2
2014-Oct-25 22:10 051 17.2
2014-Oct-25 22:04 051 17.2
2014-Oct-25 22:00 051 17.2
2014-Oct-25 21:55 090 17.2
2014-Oct-25 21:50 090 17.2
2014-Oct-25 21:45 090 17.2
2014-Oct-25 21:40 126 17.2
2014-Oct-25 21:34 128 17.8
2014-Oct-25 21:31 128 17.8
2014-Oct-25 21:25 128 17.8
2014-Oct-25 21:20 128 17.8
2014-Oct-25 21:15 128 17.8
2014-Oct-25 21:10 128 17.2
2014-Oct-25 21:04 128 17.2
2014-Oct-25 21:01 128 17.2
2014-Oct-25 20:55 128 17.8
2014-Oct-25 20:50 128 17.8
2014-Oct-25 20:45 128 17.8
2014-Oct-25 20:40 128 17.8
2014-Oct-25 20:36 128 17.8
2014-Oct-25 20:30 128 17.8
2014-Oct-25 20:25 128 18.3
2014-Oct-25 20:20 147 18.3
2014-Oct-25 20:15 147 18.3
2014-Oct-25 20:10 148 18.3
2014-Oct-25 20:06 148 18.3
2014-Oct-25 20:00 172 18.3
2014-Oct-25 19:55 172 18.3
2014-Oct-25 19:50 174 18.3
2014-Oct-25 19:45 174 18.3
2014-Oct-25 19:40 174 18.9
2014-Oct-25 19:36 174 18.9
2014-Oct-25 19:30 174 18.9
2014-Oct-25 19:25 174 18.9
2014-Oct-25 19:20 174 18.9
2014-Oct-25 19:15 174 18.9
2014-Oct-25 19:09 174 18.9
2014-Oct-25 19:05 174 18.9
2014-Oct-25 19:00 174 18.9
2014-Oct-25 18:55 174 18.9
2014-Oct-25 18:50 174 19.4
2014-Oct-25 18:45 169 19.4
2014-Oct-25 18:39 168 19.4
2014-Oct-25 18:35 167 19.4
2014-Oct-25 18:30 167 19.4
2014-Oct-25 18:25 167 20.0
2014-Oct-25 18:20 168 20.0
2014-Oct-25 18:15 167 20.0
2014-Oct-25 18:10 167 20.6
2014-Oct-25 18:05 167 20.6
2014-Oct-25 18:00 167 20.6
2014-Oct-25 17:55 167 21.1
2014-Oct-25 17:50 167 21.1
2014-Oct-25 17:45 167 21.1
2014-Oct-25 17:39 167 21.1
2014-Oct-25 17:35 167 21.7
2014-Oct-25 17:30 167 21.7
2014-Oct-25 17:25 167 21.7
2014-Oct-25 17:20 167 22.2
2014-Oct-25 17:15 167 22.2
2014-Oct-25 17:09 167 22.2
2014-Oct-25 17:05 167 22.2
2014-Oct-25 17:00 167 22.2
2014-Oct-25 16:55 191 22.2
2014-Oct-25 16:50 234 22.2
2014-Oct-25 16:45 234 22.8
2014-Oct-25 16:39 234 22.8
2014-Oct-25 16:36 234 22.8
2014-Oct-25 16:30 232 23.3
2014-Oct-25 16:25 232 23.3
2014-Oct-25 16:20 232 23.3
2014-Oct-25 16:15 232 23.3
2014-Oct-25 16:09 232 23.3
2014-Oct-25 16:05 223 23.3
2014-Oct-25 16:00 237 23.3
2014-Oct-25 15:55 237 23.3
2014-Oct-25 15:50 240 23.3
2014-Oct-25 15:45 244 0 23.3
2014-Oct-25 15:41 247 0 23.3
2014-Oct-25 15:35 237 0 23.3
2014-Oct-25 15:30 203 23.9
2014-Oct-25 15:25 223 23.9
2014-Oct-25 15:20 227 23.9
2014-Oct-25 15:15 192 23.9
2014-Oct-25 15:11 219 23.9
2014-Oct-25 15:05 219 0 23.3
2014-Oct-25 15:00 193 0 23.3
2014-Oct-25 14:55 198 23.9
2014-Oct-25 14:50 196 23.9
2014-Oct-25 14:45 205 23.9
2014-Oct-25 14:41 232 0 23.3
2014-Oct-25 14:35 217 1 23.3
2014-Oct-25 14:30 220 0 23.3
2014-Oct-25 14:25 254 23.9
2014-Oct-25 14:20 175 23.9
2014-Oct-25 14:15 174 23.9
2014-Oct-25 14:10 175 23.9
2014-Oct-25 14:05 179 23.9
2014-Oct-25 14:00 179 23.9
2014-Oct-25 13:55 184 23.9
2014-Oct-25 13:50 181 23.9
2014-Oct-25 13:45 179 23.9
2014-Oct-25 13:40 182 23.9
2014-Oct-25 13:35 188 23.9
2014-Oct-25 13:30 202 23.9
2014-Oct-25 13:25 241 23.3
2014-Oct-25 13:20 241 0 23.3
2014-Oct-25 13:14 219 23.9
2014-Oct-25 13:10 186 23.9
2014-Oct-25 13:05 191 23.3
2014-Oct-25 13:00 217 23.9
2014-Oct-25 12:55 198 0 23.3
2014-Oct-25 12:50 244 0 23.3
2014-Oct-25 12:44 208 23.3
2014-Oct-25 12:41 239 23.3
2014-Oct-25 12:35 195 0 22.8
2014-Oct-25 12:30 222 0 22.8
2014-Oct-25 12:25 227 0 22.8
2014-Oct-25 12:20 236 0 22.8
2014-Oct-25 12:14 223 1 22.8
2014-Oct-25 12:10 224 1 22.8
2014-Oct-25 12:05 236 2 22.8
2014-Oct-25 12:00 224 2 23.3
2014-Oct-25 11:55 234 2 22.8
2014-Oct-25 11:50 219 2 23.3
2014-Oct-25 11:46 227 1 23.3
2014-Oct-25 11:40 234 23.3
2014-Oct-25 11:35 254 22.8
2014-Oct-25 11:30 256 0 22.8
2014-Oct-25 11:25 237 1 22.8
2014-Oct-25 11:20 226 1 22.8
2014-Oct-25 11:16 239 0 22.8
2014-Oct-25 11:10 220 22.8
2014-Oct-25 11:05 213 0 22.8
2014-Oct-25 11:00 200 0 22.8
2014-Oct-25 10:55 210 22.8
2014-Oct-25 10:49 203 22.8
2014-Oct-25 10:45 205 0 22.2
2014-Oct-25 10:40 191 22.2
2014-Oct-25 10:35 189 0 22.2
2014-Oct-25 10:30 192 0 22.2
2014-Oct-25 10:25 202 22.2
2014-Oct-25 10:19 205 22.2
2014-Oct-25 10:15 199 22.2
2014-Oct-25 10:10 192 22.2
2014-Oct-25 10:05 193 0 22.2
2014-Oct-25 10:00 205 0 22.2
2014-Oct-25 09:55 200 0 22.8
2014-Oct-25 09:49 219 0 23.3
2014-Oct-25 09:45 202 23.9
2014-Oct-25 09:40 189 23.9
2014-Oct-25 09:35 185 24.4
2014-Oct-25 09:30 188 24.4
2014-Oct-25 09:25 188 23.9
2014-Oct-25 09:19 188 23.3
2014-Oct-25 09:16 188 23.3
2014-Oct-25 09:10 188 23.3
2014-Oct-25 09:05 188 22.8
2014-Oct-25 09:00 191 22.8
2014-Oct-25 08:55 191 22.8
2014-Oct-25 08:51 192 22.2
2014-Oct-25 08:46 193 21.7
2014-Oct-25 08:40 182 21.1
2014-Oct-25 08:35 182 21.1
2014-Oct-25 08:30 182 20.6
2014-Oct-25 08:25 182 20.0
2014-Oct-25 08:21 181 20.0
2014-Oct-25 08:15 181 19.4
2014-Oct-25 08:10 095 18.9
2014-Oct-25 08:04 095 18.3
2014-Oct-25 08:00 095 17.8
2014-Oct-25 07:55 095 17.2
2014-Oct-25 07:51 095 17.2
2014-Oct-25 07:45 093 16.7
2014-Oct-25 07:40 093 16.1
2014-Oct-25 07:35 093 16.1
2014-Oct-25 07:30 093 15.6
2014-Oct-25 07:25 086 15.6
2014-Oct-25 07:21 088 15.0
2014-Oct-25 07:15 086 15.0
2014-Oct-25 07:10 086 14.4
2014-Oct-25 07:05 086 14.4
2014-Oct-25 07:00 086 14.4
2014-Oct-25 06:54 048 14.4
2014-Oct-25 06:50 049 13.9
2014-Oct-25 06:45 042 13.9
2014-Oct-25 06:40 037 13.9
2014-Oct-25 06:35 040 13.9
2014-Oct-25 06:30 042 13.9
2014-Oct-25 06:24 042 14.4
2014-Oct-25 06:20 042 14.4
2014-Oct-25 06:15 044 14.4
2014-Oct-25 06:10 044 14.4
2014-Oct-25 06:04 045 15.0
2014-Oct-25 06:00 045 15.0
2014-Oct-25 05:55 045 15.0
2014-Oct-25 05:50 045 15.0
2014-Oct-25 05:45 045 15.0
2014-Oct-25 05:40 045 15.0
2014-Oct-25 05:35 045 15.0
2014-Oct-25 05:30 045 14.4
2014-Oct-25 05:24 042 14.4
2014-Oct-25 05:20 041 14.4
2014-Oct-25 05:15 041 14.4
2014-Oct-25 05:10 040 14.4
2014-Oct-25 05:05 040 14.4
2014-Oct-25 05:00 040 14.4
2014-Oct-25 04:54 040 14.4
2014-Oct-25 04:50 040 14.4
2014-Oct-25 04:45 040 14.4
2014-Oct-25 04:40 040 14.4
2014-Oct-25 04:35 040 14.4
2014-Oct-25 04:30 040 15.0
2014-Oct-25 04:24 040 15.0
2014-Oct-25 04:21 040 15.0
2014-Oct-25 04:15 040 15.0
2014-Oct-25 04:10 040 15.0
2014-Oct-25 04:04 038 15.6
2014-Oct-25 04:00 038 15.0
2014-Oct-25 03:56 049 15.0
2014-Oct-25 03:50 051 14.4
2014-Oct-25 03:45 049 14.4
2014-Oct-25 03:40 049 14.4
2014-Oct-25 03:35 049 14.4
2014-Oct-25 03:30 049 14.4
2014-Oct-25 03:26 049 14.4
2014-Oct-25 03:20 049 15.0
2014-Oct-25 03:15 049 15.0
2014-Oct-25 03:10 049 15.0
2014-Oct-25 03:05 049 15.0
2014-Oct-25 03:00 049 15.6
2014-Oct-25 02:56 049 15.6
2014-Oct-25 02:50 049 15.6
2014-Oct-25 02:45 049 15.6
2014-Oct-25 02:40 049 15.6
2014-Oct-25 02:35 049 15.6
2014-Oct-25 02:30 051 15.6
2014-Oct-25 02:26 051 15.6
2014-Oct-25 02:20 052 15.6
2014-Oct-25 02:15 052 15.6
2014-Oct-25 02:10 052 15.6
2014-Oct-25 02:04 052 15.6
2014-Oct-25 01:59 052 15.0
2014-Oct-25 01:55 052 15.0
2014-Oct-25 01:50 048 15.0
2014-Oct-25 01:45 048 15.0
2014-Oct-25 01:40 048 15.0
2014-Oct-25 01:35 048 15.0
2014-Oct-25 01:30 048 15.0
2014-Oct-25 01:25 048 15.0
2014-Oct-25 01:20 048 15.0
2014-Oct-25 01:15 048 15.0
2014-Oct-25 01:10 048 15.0
2014-Oct-25 01:05 048 15.0
2014-Oct-25 00:59 048 15.0
2014-Oct-25 00:55 048 15.0
2014-Oct-25 00:50 048 15.6
2014-Oct-25 00:45 048 15.6
2014-Oct-25 00:40 048 15.6
2014-Oct-25 00:35 048 15.6
2014-Oct-25 00:29 048 15.6
2014-Oct-25 00:25 048 15.6
2014-Oct-25 00:20 048 15.6
2014-Oct-25 00:15 048 15.6
2014-Oct-25 00:10 048 15.6
2014-Oct-25 00:05 047 15.6
2014-Oct-24 23:59 047 15.6
2014-Oct-24 23:56 047 15.6
2014-Oct-24 23:50 047 15.6
2014-Oct-24 23:45 049 15.6
2014-Oct-24 23:40 051 15.6
2014-Oct-24 23:35 048 15.6
2014-Oct-24 23:29 042 15.6
2014-Oct-24 23:26 038 15.6
2014-Oct-24 23:20 038 15.6
2014-Oct-24 23:15 038 15.6
2014-Oct-24 23:10 038 15.6
2014-Oct-24 23:04 038 16.1
2014-Oct-24 23:01 038 16.1
2014-Oct-24 22:55 034 16.1
2014-Oct-24 22:50 034 16.1
2014-Oct-24 22:45 034 16.1
2014-Oct-24 22:40 032 16.1
2014-Oct-24 22:35 302 16.1
2014-Oct-24 22:31 302 16.1
2014-Oct-24 22:25 302 16.1
2014-Oct-24 22:20 301 16.1
2014-Oct-24 22:15 294 16.1
2014-Oct-24 22:10 294 16.1
2014-Oct-24 22:05 294 16.1
2014-Oct-24 22:01 294 16.1
2014-Oct-24 21:55 294 16.7
2014-Oct-24 21:50 294 16.7
2014-Oct-24 21:45 294 16.7
2014-Oct-24 21:40 294 16.7
2014-Oct-24 21:34 294 16.7
2014-Oct-24 21:30 294 16.7
2014-Oct-24 21:25 294 16.7
2014-Oct-24 21:20 294 16.7
2014-Oct-24 21:15 294 16.7
2014-Oct-24 21:10 268 16.7
2014-Oct-24 21:04 268 16.7
2014-Oct-24 21:00 268 16.7
2014-Oct-24 20:55 268 16.7
2014-Oct-24 20:50 268 16.7
2014-Oct-24 20:45 268 16.7
2014-Oct-24 20:37 268 16.7
2014-Oct-24 20:34 268 17.2
2014-Oct-24 20:30 268 17.2
2014-Oct-24 20:25 268 17.2
2014-Oct-24 20:20 268 17.2
2014-Oct-24 20:15 268 17.2
2014-Oct-24 20:10 268 17.2
2014-Oct-24 20:04 268 17.2
2014-Oct-24 20:00 268 17.8
2014-Oct-24 19:55 268 17.8
2014-Oct-24 19:50 268 17.8
2014-Oct-24 19:45 268 17.8
2014-Oct-24 19:40 268 17.8
2014-Oct-24 19:34 268 17.8
2014-Oct-24 19:31 268 17.8
2014-Oct-24 19:25 268 18.3
2014-Oct-24 19:20 268 18.3
2014-Oct-24 19:15 268 18.3
2014-Oct-24 19:10 268 18.3
2014-Oct-24 19:04 267 18.9
2014-Oct-24 19:00 268 18.9
2014-Oct-24 18:55 268 18.9
2014-Oct-24 18:50 267 18.9
2014-Oct-24 18:45 268 18.9
2014-Oct-24 18:40 268 18.9
2014-Oct-24 18:36 268 18.9
2014-Oct-24 18:30 268 19.4
2014-Oct-24 18:25 268 19.4
2014-Oct-24 18:20 268 19.4
2014-Oct-24 18:15 268 19.4
2014-Oct-24 18:10 268 20.0
2014-Oct-24 18:06 268 20.0
2014-Oct-24 18:00 268 20.0
2014-Oct-24 17:55 268 20.6
2014-Oct-24 17:50 267 20.6
2014-Oct-24 17:45 267 20.6
2014-Oct-24 17:40 267 21.1
2014-Oct-24 17:35 267 21.1
2014-Oct-24 17:30 267 21.1
2014-Oct-24 17:25 267 21.1
2014-Oct-24 17:20 267 21.1
2014-Oct-24 17:15 267 21.1
2014-Oct-24 17:10 267 21.7
2014-Oct-24 17:04 274 21.7
2014-Oct-24 17:00 274 21.7
2014-Oct-24 16:55 217 22.2
2014-Oct-24 16:50 217 22.2
2014-Oct-24 16:45 217 22.2
2014-Oct-24 16:40 217 22.2
2014-Oct-24 16:35 217 22.2
2014-Oct-24 16:30 216 22.2
2014-Oct-24 16:25 216 22.2
2014-Oct-24 16:20 217 22.2
2014-Oct-24 16:15 161 22.2
2014-Oct-24 16:09 161 22.2
2014-Oct-24 16:03 161 22.2
2014-Oct-24 16:00 161 22.2
2014-Oct-24 15:55 161 22.2
2014-Oct-24 15:50 161 22.8
2014-Oct-24 15:45 162 22.8
2014-Oct-24 15:39 161 22.8
2014-Oct-24 15:36 157 23.3
2014-Oct-24 15:30 160 23.3
2014-Oct-24 15:25 160 23.3
2014-Oct-24 15:20 160 23.3
2014-Oct-24 15:15 161 23.3
2014-Oct-24 15:09 161 23.3
2014-Oct-24 15:05 161 23.3
2014-Oct-24 15:00 160 23.3
2014-Oct-24 14:55 161 23.3
2014-Oct-24 14:50 161 22.8
2014-Oct-24 14:45 161 22.8
2014-Oct-24 14:20 144 23.9
2014-Oct-24 14:15 137 23.9
2014-Oct-24 14:11 136 23.9
2014-Oct-24 14:05 107 23.9
2014-Oct-24 14:00 085 23.9
2014-Oct-24 13:55 102 23.9
2014-Oct-24 13:50 100 24.4
2014-Oct-24 13:45 099 23.9
2014-Oct-24 13:41 099 23.9
2014-Oct-24 13:35 157 23.3
2014-Oct-24 13:30 174 23.9
2014-Oct-24 13:25 186 23.9
2014-Oct-24 13:20 171 23.9
2014-Oct-24 13:14 172 23.9
2014-Oct-24 13:10 178 23.9
2014-Oct-24 13:04 169 24.4
2014-Oct-24 13:00 175 24.4
2014-Oct-24 12:55 184 24.4
2014-Oct-24 12:50 184 23.9
2014-Oct-24 12:44 208 23.9
2014-Oct-24 12:40 220 23.9
2014-Oct-24 12:35 198 23.9
2014-Oct-24 12:30 189 23.9
2014-Oct-24 12:25 188 23.9
2014-Oct-24 12:20 184 24.4
2014-Oct-24 12:14 206 23.9
2014-Oct-24 12:10 206 23.9
2014-Oct-24 12:04 193 23.9
2014-Oct-24 12:00 193 23.9
2014-Oct-24 11:55 195 23.9
2014-Oct-24 11:50 195 23.3
2014-Oct-24 11:44 195 23.3
2014-Oct-24 11:40 196 23.3
2014-Oct-24 11:35 196 23.3
2014-Oct-24 11:30 182 22.8
2014-Oct-24 11:25 191 22.8
2014-Oct-24 11:20 191 22.8
2014-Oct-24 11:14 232 22.8
2014-Oct-24 11:11 172 0 22.8
2014-Oct-24 11:04 237 0 22.2
2014-Oct-24 11:00 256 0 22.8
2014-Oct-24 10:55 222 1 22.2
2014-Oct-24 10:50 216 0 22.2
2014-Oct-24 10:46 215 22.8
2014-Oct-24 10:40 193 22.8
2014-Oct-24 10:35 240 0 22.8
2014-Oct-24 10:30 209 0 22.8
2014-Oct-24 10:25 196 22.2
2014-Oct-24 10:20 240 0 22.8
2014-Oct-24 10:16 224 0 22.8
2014-Oct-24 10:10 209 22.8
2014-Oct-24 10:04 234 23.3
2014-Oct-24 10:00 236 23.3
2014-Oct-24 09:55 237 23.3
2014-Oct-24 09:50 254 23.9
2014-Oct-24 09:46 254 23.9
2014-Oct-24 09:40 254 24.4
2014-Oct-24 09:35 254 23.9
2014-Oct-24 09:30 254 23.9
2014-Oct-24 09:25 220 23.9
2014-Oct-24 09:19 340 23.3
2014-Oct-24 09:15 340 23.3
2014-Oct-24 09:10 337 22.8
2014-Oct-24 09:04 333 22.8
2014-Oct-24 09:00 291 22.2
2014-Oct-24 08:55 265 22.8
2014-Oct-24 08:50 265 22.2
2014-Oct-24 08:45 264 22.2
2014-Oct-24 08:40 239 22.2
2014-Oct-24 08:35 239 21.7
2014-Oct-24 08:30 239 21.1
2014-Oct-24 08:25 239 20.6
2014-Oct-24 08:20 239 20.0
2014-Oct-24 08:15 239 20.0
2014-Oct-24 08:10 236 19.4
2014-Oct-24 08:05 236 19.4
2014-Oct-24 08:00 175 18.9
2014-Oct-24 07:55 127 18.9
2014-Oct-24 07:49 127 18.3
2014-Oct-24 07:45 127 18.3
2014-Oct-24 07:40 127 17.8
2014-Oct-24 07:35 127 17.8
2014-Oct-24 07:30 126 17.2
2014-Oct-24 07:25 138 17.2
2014-Oct-24 07:19 215 16.7
2014-Oct-24 07:16 215 16.7
2014-Oct-24 07:10 217 16.1
2014-Oct-24 07:04 217 15.6
2014-Oct-24 07:00 217 15.6